#timestamp,LO_Frequency,Hit,StdDev 
1581379215.2,286046998.0,N
1581379235.0,286046999.2,N
1581379235.9,286046999.2,N
1581379255.8,286047001.0,N
1581379275.6,286046998.3,N
1581379295.4,286046998.8,N
1581379315.3,286046999.1,N
1581379335.1,286046999.5,N
1581379355.8,286046999.1,N
1581379375.7,286046999.4,N
1581379395.5,286047000.3,N
1581379415.4,286047002.7,Y
1581379435.2,286047002.3,P
1581379455.0,286047002.0,N
1581379455.9,286047002.0,N
1581379475.8,286047002.1,N
1581379495.6,286047001.1,N
1581379515.4,286046999.7,N
1581379535.3,286046998.6,N
1581379555.1,286046999.5,N
1581379575.9,286046996.8,N
1581379595.7,286046999.2,N
1581379615.5,286047001.0,N
1581379635.4,286047002.1,N
1581379655.2,286047002.2,N
1581379675.0,286046998.8,N
1581379675.9,286046998.8,N
1581379695.8,286047000.1,N
1581379715.6,286046999.9,N
1581379735.5,286047002.3,N
1581379755.3,286047000.7,N
1581379775.1,286047000.7,N
1581379795.9,286046999.8,N
1581379815.7,286047000.1,N
1581379835.5,286047004.4,N
1581379855.4,286047001.7,N
1581379875.2,286047003.3,N
1581379895.1,286047004.3,N
1581379896.0,286047004.3,N
1581379915.8,286047001.8,N
1581379935.6,286047004.4,N
1581379955.5,286047003.4,N
1581379975.3,286047005.4,N
1581379995.2,286047004.2,N
1581380015.9,286047003.5,N
1581380035.7,286047001.9,N
1581380055.6,286047004.0,N
1581380075.4,286047001.7,N
1581380095.2,286047001.3,N
1581380115.1,286047001.4,N
1581380116.0,286047001.4,N
1581380135.8,286047003.4,N
1581380155.7,286047004.1,N
1581380175.5,286047001.4,N
1581380195.3,286047003.9,N
1581380215.2,286047003.2,N
1581380235.0,286047004.4,N
1581380235.9,286047004.4,N
1581380255.8,286047004.3,N
1581380275.6,286047001.8,N
1581380295.4,286047003.9,N
1581380315.3,286047002.2,N
1581380335.1,286047001.7,N
1581380355.8,286047005.6,Y
1581380375.7,286047001.5,P
1581380395.5,286047001.5,N
1581380415.4,286047002.1,N
1581380435.2,286046999.7,N
1581380455.0,286047001.4,N
1581380455.9,286047001.4,N
1581380475.8,286047002.1,N
1581380495.6,286047001.6,N
1581380515.4,286047002.4,N
1581380535.3,286047000.5,N
1581380555.1,286047000.6,N
1581380575.9,286046998.5,N
1581380595.7,286047000.7,N
1581380615.5,286047000.9,N
1581380635.4,286047002.0,N
1581380655.2,286047004.4,Y
1581380675.0,286047000.6,P
1581380675.9,286047000.6,N
1581380695.8,286046999.9,N
1581380715.6,286047002.4,Y
1581380735.5,286046999.9,P
1581380755.3,286047000.5,N
1581380775.1,286047000.4,N
1581380795.9,286047002.2,Y
1581380815.7,286047001.0,P
1581380835.6,286046998.9,P
1581380855.4,286046997.2,P
1581380875.2,286046996.7,N
1581380895.1,286046998.4,N
1581380896.0,286046998.4,N
1581380915.8,286046999.3,N
1581380935.6,286046997.3,N
1581380955.5,286046995.3,Y
1581380975.3,286047000.7,P
1581380995.2,286046998.4,N
1581381015.9,286047000.7,N
1581381035.7,286046999.7,N
1581381055.6,286046999.3,N
1581381075.4,286047000.2,N
1581381095.3,286047001.0,N
1581381115.1,286046998.9,N
1581381116.0,286046998.9,N
1581381135.8,286046999.4,N
1581381155.7,286046999.1,N
1581381175.5,286046998.1,N
1581381195.3,286047000.2,N
1581381215.2,286047002.8,Y
1581381235.0,286047002.6,P
1581381235.9,286047002.6,N
1581381255.8,286047001.9,N
1581381275.6,286047002.7,N
1581381295.4,286047002.3,N
1581381315.3,286047002.1,N
1581381335.1,286047000.3,N
1581381355.9,286047000.6,N
1581381375.7,286047000.0,N
1581381395.5,286047001.2,N
1581381415.4,286047001.2,N
1581381435.2,286046998.9,N
1581381455.0,286046996.6,N
1581381455.9,286046996.6,N
1581381475.8,286046995.3,N
1581381495.6,286046996.1,N
1581381515.5,286046998.0,N
1581381535.3,286046997.6,N
1581381555.1,286046996.9,N
1581381575.9,286046998.5,N
1581381595.7,286046998.6,N
1581381615.5,286046998.7,N
1581381635.4,286046999.3,N
1581381655.2,286047000.7,N
1581381675.1,286046999.9,N
1581381676.0,286046999.9,N
1581381695.8,286046999.7,N
1581381715.6,286047000.6,N
1581381735.5,286047002.6,N
1581381755.3,286046998.2,N
1581381775.2,286046999.9,N
1581381795.9,286047002.7,N
1581381815.7,286047001.0,N
1581381835.6,286047000.7,N
1581381855.4,286047000.5,N
1581381875.2,286047000.5,N
1581381895.1,286047002.3,N
1581381896.0,286047002.3,N
1581381915.8,286047002.4,N
1581381935.7,286047002.1,N
1581381955.5,286047001.7,N
1581381975.3,286047004.4,N
1581381995.2,286047001.9,N
1581382015.0,286047001.9,N
1581382015.9,286047001.9,N
1581382035.8,286047002.2,N
1581382055.6,286047003.7,N
1581382075.4,286047004.0,N
1581382095.3,286047002.2,N
1581382115.1,286047001.4,N
1581382135.8,286047002.8,N
1581382155.7,286046998.9,N
1581382175.5,286046998.8,N
1581382195.4,286046997.6,N
1581382215.2,286046995.9,N
1581382235.0,286046996.5,N
1581382235.9,286046996.5,N
1581382255.8,286046998.3,N
1581382275.6,286046997.6,N
1581382295.4,286046997.4,N
1581382315.3,286046998.6,N
1581382335.1,286047000.4,N
1581382355.9,286047002.4,N
1581382375.7,286047001.4,N
1581382395.5,286046999.8,N
1581382415.4,286047001.9,N
1581382435.2,286047001.4,N
1581382455.1,286046999.9,N
1581382456.0,286046999.9,N
1581382475.8,286047000.1,N
1581382495.6,286046998.4,N
1581382515.5,286047000.5,N
1581382535.3,286047000.8,N
1581382555.1,286046998.5,N
1581382575.9,286046997.8,N
1581382595.7,286046998.5,N
1581382615.6,286046998.2,N
1581382635.4,286046996.9,N
1581382655.2,286046995.0,N
1581382675.1,286046995.5,N
1581382676.0,286046995.5,N
1581382695.8,286046995.5,N
1581382715.6,286046999.4,N
1581382735.5,286047001.1,N
1581382755.3,286046998.6,N
1581382775.2,286047001.1,N
1581382795.9,286046998.1,N
